This is the latest recevied weather packets stored in our database for station/object VE3TEJ. If no packets are shown the sender has not sent any weather packets the latest 10 day(s).
| Time | Temp. | Humidity | Pressure | Rain* | Wind** | Luminosity | Snow |
|---|---|---|---|---|---|---|---|
| 1777509136 | 5.56° C | 80% | 1009.2 hPa | 0 mm | - | - | - |
| 1777508837 | 5.56° C | 80% | 1009.2 hPa | 0 mm | - | - | - |
| 1777508537 | 5.56° C | 80% | 1008.8 hPa | 0 mm | - | - | - |
| 1777508238 | 6.11° C | 79% | 1008.9 hPa | 0 mm | - | - | - |
| 1777507936 | 6.11° C | 79% | 1009 hPa | 0 mm | - | - | - |
| 1777507636 | 6.11° C | 78% | 1008.9 hPa | 0 mm | - | - | - |
| 1777507336 | 6.11° C | 78% | 1008.8 hPa | 0 mm | - | - | - |
| 1777507037 | 6.67° C | 77% | 1008.9 hPa | 0 mm | - | - | - |
| 1777506737 | 6.67° C | 77% | 1008.9 hPa | 0 mm | - | - | - |
| 1777506438 | 7.22° C | 77% | 1008.8 hPa | 0 mm | - | - | - |
| 1777506137 | 7.22° C | 76% | 1008.8 hPa | 0 mm | - | - | - |
| 1777505837 | 7.78° C | 75% | 1008.8 hPa | 0 mm | - | - | - |
| 1777505537 | 7.78° C | 74% | 1008.6 hPa | 0 mm | - | - | - |
| 1777505237 | 7.78° C | 74% | 1008.6 hPa | 0 mm | - | - | - |
| 1777504937 | 7.78° C | 74% | 1008.5 hPa | 0 mm | - | - | - |
| 1777504637 | 8.33° C | 72% | 1008.6 hPa | 0 mm | - | - | - |
| 1777504336 | 8.33° C | 73% | 1008.7 hPa | 0 mm | - | - | - |
| 1777504036 | 8.89° C | 71% | 1008.5 hPa | 0 mm | - | - | - |
| 1777503737 | 8.89° C | 71% | 1008.5 hPa | 0 mm | - | - | - |
| 1777503437 | 9.44° C | 72% | 1008.6 hPa | 0 mm | - | - | - |
| 1777503137 | 9.44° C | 73% | 1008.7 hPa | 0 mm | - | - | - |
| 1777502836 | 9.44° C | 74% | 1008.5 hPa | 0 mm | - | - | - |
| 1777502536 | 9.44° C | 76% | 1008.4 hPa | 0 mm | - | - | - |
| 1777502236 | 9.44° C | 77% | 1008.3 hPa | 0 mm | - | - | - |
| 1777501937 | 9.44° C | 78% | 1008.3 hPa | 0 mm | - | - | - |
* Rain latest hour (hover to see other rain measurements)
** Current wind speed in m/s (hover to see current wind gust speed)